contact:dominique.lefevre@mio.osupytheas.fr, maurice.libes@osupytheas.fr, didier.mallarino@osupytheas.fr
Project:EMSO http://www.emso-fr.org/EMSO-France
Depth: 2436.0 m
Title:EMSO Ligure Ouest : Data MII capteur AQUADOPP
Date,Latitude,Longitude,X_East,Y_North,Z_Up,Amplitude_X,Amplitude_Y,Amplitude_Z,Batterie,SoundSpeed,Heading,Pitch,Roll,Pressure,TIS,Speed,Direction
, degrees North, degrees East, m.s-1, m.s-1,m.s-1, 1, 1, 1, Volt, m.s-1, degree, degree, degree, dbar, degree_C, m.s-1, degree
2024-05-08T00:04:03,42.805,6.029,0.026,-0.014,0.004,106.0,107.0,103.0,13.4,1505.2,358.5,-0.8,1.8,2471.592,13.28,0.029,118.3
2024-05-08T00:07:03,42.805,6.029,0.041,-0.04,0.017,106.0,107.0,102.0,13.4,1505.2,6.8,-0.7,1.8,2471.577,13.29,0.057,134.3
2024-05-08T00:10:03,42.805,6.029,0.05,-0.018,0.041,106.0,105.0,103.0,13.4,1505.2,0.0,-0.8,1.8,2471.54,13.29,0.053,109.8
2024-05-08T00:13:03,42.805,6.029,0.024,-0.028,0.008,107.0,107.0,103.0,13.4,1505.2,3.8,-0.7,1.8,2471.564,13.29,0.036,139.4
2024-05-08T00:16:03,42.805,6.029,0.032,-0.016,0.01,107.0,107.0,103.0,13.3,1505.2,10.3,-0.7,1.8,2471.508,13.29,0.035,116.6
2024-05-08T00:19:03,42.805,6.029,0.032,-0.013,0.014,105.0,108.0,103.0,13.4,1505.2,355.3,-0.8,1.8,2471.57,13.29,0.034,112.1
2024-05-08T00:22:03,42.805,6.029,0.021,-0.001,0.022,104.0,107.0,103.0,13.4,1505.2,0.5,-0.7,1.8,2471.518,13.29,0.021,92.7
2024-05-08T00:25:03,42.805,6.029,0.026,-0.015,0.036,106.0,107.0,102.0,13.4,1505.2,9.8,-0.7,1.8,2471.525,13.29,0.03,120.0
2024-05-08T00:28:03,42.805,6.029,0.024,0.008,0.008,106.0,106.0,103.0,13.3,1505.2,0.9,-0.7,1.8,2471.508,13.29,0.025,71.6
2024-05-08T00:31:03,42.805,6.029,0.029,-0.027,0.007,106.0,105.0,104.0,13.3,1505.2,3.8,-0.7,1.8,2471.526,13.29,0.039,133.0
2024-05-08T00:34:03,42.805,6.029,0.03,-0.004,0.015,106.0,105.0,103.0,13.4,1505.2,4.9,-0.8,1.8,2471.527,13.29,0.03,97.6
2024-05-08T00:37:03,42.805,6.029,0.028,-0.015,0.015,107.0,107.0,103.0,13.4,1505.2,2.4,-0.7,1.8,2471.508,13.29,0.031,118.2
2024-05-08T00:40:03,42.805,6.029,0.057,-0.002,0.027,106.0,106.0,103.0,13.3,1505.2,6.9,-0.7,1.8,2471.518,13.29,0.057,92.0
2024-05-08T00:43:03,42.805,6.029,0.021,-0.019,0.0,105.0,107.0,103.0,13.3,1505.2,2.0,-0.8,1.8,2471.522,13.29,0.028,132.1
2024-05-08T00:46:03,42.805,6.029,0.015,0.001,-0.02,106.0,106.0,103.0,13.4,1505.2,0.4,-0.8,1.8,2471.491,13.29,0.015,86.2
2024-05-08T00:49:03,42.805,6.029,0.046,-0.003,0.008,106.0,107.0,103.0,13.4,1505.2,354.2,-0.7,1.8,2471.53,13.29,0.046,93.7
2024-05-08T00:52:03,42.805,6.029,0.038,0.0,0.002,105.0,107.0,102.0,13.3,1505.2,0.0,-0.8,1.8,2471.509,13.29,0.038,90.0
2024-05-08T00:55:03,42.805,6.029,0.031,-0.016,-0.002,106.0,107.0,103.0,13.4,1505.2,8.0,-0.8,1.8,2471.493,13.29,0.034,117.3
2024-05-08T00:58:03,42.805,6.029,0.035,-0.007,0.028,106.0,107.0,103.0,13.3,1505.2,355.3,-0.7,1.8,2471.484,13.29,0.035,101.3
2024-05-08T01:04:03,42.805,6.029,0.024,-0.02,0.015,108.0,108.0,104.0,13.4,1505.2,358.4,-0.8,1.8,2471.554,13.28,0.031,129.8
2024-05-08T01:07:03,42.805,6.029,0.011,0.01,-0.019,107.0,108.0,103.0,13.4,1505.2,359.5,-0.8,1.8,2471.494,13.29,0.014,47.7
2024-05-08T01:10:03,42.805,6.029,0.007,-0.016,-0.013,107.0,108.0,103.0,13.4,1505.2,3.2,-0.8,1.9,2471.518,13.29,0.017,156.4
2024-05-08T01:13:03,42.805,6.029,0.038,0.0,0.048,107.0,109.0,103.0,13.3,1505.2,6.9,-0.8,1.9,2471.469,13.29,0.038,90.0
2024-05-08T01:16:03,42.805,6.029,0.044,-0.011,0.012,107.0,108.0,102.0,13.4,1505.2,355.3,-0.8,1.8,2471.534,13.29,0.045,104.0
2024-05-08T01:19:03,42.805,6.029,0.021,-0.003,-0.003,106.0,106.0,104.0,13.3,1505.2,356.7,-0.8,1.8,2471.508,13.29,0.021,98.1
2024-05-08T01:22:03,42.805,6.029,0.021,-0.033,0.003,105.0,108.0,103.0,13.4,1505.2,2.1,-0.7,1.8,2471.496,13.29,0.039,147.5
2024-05-08T01:25:03,42.805,6.029,0.046,-0.02,0.006,106.0,108.0,103.0,13.4,1505.2,357.4,-0.7,1.8,2471.49,13.29,0.05,113.5
2024-05-08T01:28:03,42.805,6.029,0.021,-0.009,0.0,105.0,108.0,104.0,13.4,1505.2,5.0,-0.8,1.8,2471.505,13.29,0.022,113.2
2024-05-08T01:31:03,42.805,6.029,0.029,-0.009,0.03,105.0,108.0,103.0,13.4,1505.2,6.9,-0.7,1.8,2471.492,13.29,0.03,107.2
2024-05-08T01:34:03,42.805,6.029,0.031,0.008,0.017,105.0,108.0,103.0,13.3,1505.2,1.0,-0.7,1.8,2471.476,13.29,0.032,75.5
2024-05-08T01:37:03,42.805,6.029,0.031,-0.014,0.023,106.0,109.0,102.0,13.4,1505.2,1.6,-0.8,1.8,2471.511,13.29,0.034,114.3
2024-05-08T01:40:03,42.805,6.029,0.022,-0.014,0.028,106.0,108.0,102.0,13.4,1505.2,8.5,-0.7,1.8,2471.431,13.29,0.026,122.5
2024-05-08T01:43:03,42.805,6.029,0.021,-0.006,0.008,106.0,109.0,103.0,13.4,1505.2,0.5,-0.8,1.8,2471.468,13.29,0.021,105.9
2024-05-08T01:46:03,42.805,6.029,0.025,-0.023,0.005,106.0,108.0,103.0,13.3,1505.2,1.0,-0.8,1.8,2471.438,13.29,0.033,132.6
2024-05-08T01:49:03,42.805,6.029,0.058,-0.023,0.015,106.0,108.0,103.0,13.3,1505.2,354.9,-0.8,1.8,2471.51,13.29,0.062,111.6
2024-05-08T01:52:03,42.805,6.029,0.029,-0.017,0.012,106.0,109.0,103.0,13.3,1505.2,4.9,-0.8,1.8,2471.487,13.29,0.033,120.4
2024-05-08T01:55:03,42.805,6.029,0.037,-0.026,-0.007,106.0,107.0,103.0,13.3,1505.2,357.8,-0.7,1.8,2471.469,13.29,0.045,125.1
2024-05-08T01:58:03,42.805,6.029,0.028,-0.017,0.011,105.0,107.0,103.0,13.4,1505.2,356.9,-0.8,1.8,2471.484,13.29,0.032,121.3
2024-05-08T02:04:03,42.805,6.029,0.019,-0.029,0.044,106.0,108.0,103.0,13.3,1505.2,0.0,-0.7,1.8,2471.515,13.28,0.034,146.8
2024-05-08T02:07:03,42.805,6.029,0.023,0.0,-0.016,106.0,108.0,103.0,13.4,1505.2,358.4,-0.8,1.8,2471.508,13.29,0.023,90.0
2024-05-08T02:10:03,42.805,6.029,0.028,-0.024,0.004,106.0,108.0,104.0,13.3,1505.2,7.9,-0.8,1.8,2471.494,13.29,0.036,130.6
2024-05-08T02:13:03,42.805,6.029,0.013,-0.022,0.005,106.0,106.0,104.0,13.4,1505.2,355.3,-0.7,1.8,2471.481,13.29,0.025,149.4
2024-05-08T02:16:03,42.805,6.029,0.028,-0.017,0.05,106.0,107.0,103.0,13.3,1505.2,0.5,-0.7,1.8,2471.503,13.29,0.032,121.3
2024-05-08T02:19:03,42.805,6.029,0.034,-0.012,0.025,106.0,108.0,103.0,13.4,1505.2,8.8,-0.7,1.8,2471.474,13.29,0.036,109.4
2024-05-08T02:22:03,42.805,6.029,0.008,-0.018,0.027,105.0,108.0,103.0,13.4,1505.2,6.8,-0.8,1.8,2471.47,13.29,0.019,156.0
2024-05-08T02:25:03,42.805,6.029,0.07,-0.025,0.021,107.0,108.0,102.0,13.3,1505.2,357.5,-0.8,1.8,2471.496,13.29,0.074,109.6
2024-05-08T02:28:03,42.805,6.029,0.047,-0.034,-0.004,106.0,108.0,102.0,13.3,1505.2,6.1,-0.7,1.9,2471.516,13.29,0.058,125.9
2024-05-08T02:31:03,42.805,6.029,0.064,-0.034,0.032,107.0,108.0,103.0,13.4,1505.2,359.4,-0.8,1.8,2471.456,13.29,0.072,118.0
2024-05-08T02:34:03,42.805,6.029,0.038,-0.014,0.015,107.0,108.0,103.0,13.4,1505.2,8.7,-0.8,1.8,2471.483,13.29,0.04,110.2
2024-05-08T02:37:03,42.805,6.029,0.031,0.009,0.055,106.0,108.0,103.0,13.4,1505.2,357.8,-0.8,1.8,2471.489,13.29,0.032,73.8
2024-05-08T02:40:03,42.805,6.029,0.052,-0.037,0.011,107.0,109.0,104.0,13.4,1505.2,358.4,-0.8,1.8,2471.516,13.29,0.063,125.4
2024-05-08T02:43:03,42.805,6.029,0.047,-0.029,0.001,106.0,109.0,104.0,13.3,1505.2,8.5,-0.7,1.8,2471.501,13.29,0.055,121.7
2024-05-08T02:46:03,42.805,6.029,0.031,-0.015,0.025,106.0,108.0,104.0,13.4,1505.2,5.8,-0.8,1.8,2471.471,13.29,0.034,115.8
2024-05-08T02:49:03,42.805,6.029,0.04,-0.025,-0.005,106.0,109.0,102.0,13.4,1505.2,8.5,-0.8,1.8,2471.486,13.29,0.047,122.0
2024-05-08T02:52:03,42.805,6.029,0.029,-0.003,0.016,106.0,108.0,102.0,13.4,1505.2,354.1,-0.8,1.8,2471.518,13.29,0.029,95.9
2024-05-08T02:55:03,42.805,6.029,0.032,-0.023,0.018,105.0,107.0,103.0,13.4,1505.2,5.3,-0.8,1.8,2471.507,13.29,0.039,125.7
2024-05-08T02:58:03,42.805,6.029,0.049,-0.029,0.009,106.0,108.0,103.0,13.4,1505.2,4.4,-0.8,1.8,2471.475,13.29,0.056,120.6
2024-05-08T03:04:03,42.805,6.029,0.032,-0.018,0.049,106.0,109.0,103.0,13.4,1505.2,9.0,-0.8,1.8,2471.519,13.28,0.036,119.4
2024-05-08T03:07:03,42.805,6.029,0.049,-0.03,0.012,107.0,109.0,103.0,13.4,1505.2,359.4,-0.8,1.8,2471.488,13.29,0.057,121.5
2024-05-08T03:10:03,42.805,6.029,0.044,-0.033,-0.002,105.0,108.0,103.0,13.3,1505.2,5.9,-0.7,1.8,2471.52,13.29,0.055,126.9
2024-05-08T03:13:03,42.805,6.029,0.046,-0.024,0.026,107.0,109.0,104.0,13.4,1505.2,358.5,-0.8,1.8,2471.541,13.29,0.051,117.6
2024-05-08T03:16:03,42.805,6.029,0.03,-0.018,-0.023,106.0,108.0,103.0,13.4,1505.2,6.0,-0.8,1.8,2471.524,13.29,0.034,121.0
2024-05-08T03:19:03,42.805,6.029,0.042,-0.021,0.011,108.0,108.0,103.0,13.4,1505.2,359.4,-0.7,1.8,2471.513,13.29,0.046,116.6
2024-05-08T03:22:03,42.805,6.029,0.054,-0.037,0.006,105.0,108.0,102.0,13.4,1505.2,1.4,-0.8,1.8,2471.513,13.29,0.065,124.4
2024-05-08T03:25:03,42.805,6.029,0.038,-0.022,-0.012,105.0,107.0,103.0,13.4,1505.2,357.8,-0.8,1.8,2471.523,13.29,0.043,120.1
2024-05-08T03:28:03,42.805,6.029,0.038,-0.048,0.012,105.0,107.0,102.0,13.3,1505.2,2.0,-0.8,1.8,2471.499,13.29,0.061,141.6
2024-05-08T03:31:03,42.805,6.029,0.036,-0.049,0.028,105.0,108.0,102.0,13.4,1505.2,9.2,-0.7,1.8,2471.515,13.29,0.06,143.7
2024-05-08T03:34:03,42.805,6.029,0.036,-0.043,0.01,105.0,107.0,103.0,13.4,1505.2,6.5,-0.8,1.8,2471.516,13.29,0.056,140.1
2024-05-08T03:37:03,42.805,6.029,0.031,-0.024,0.013,106.0,107.0,103.0,13.4,1505.2,1.0,-0.7,1.8,2471.544,13.29,0.039,127.7
2024-05-08T03:40:03,42.805,6.029,0.039,-0.022,0.003,106.0,107.0,103.0,13.3,1505.2,355.8,-0.8,1.8,2471.506,13.29,0.044,119.4
2024-05-08T03:43:03,42.805,6.029,0.035,-0.037,0.005,106.0,107.0,103.0,13.4,1505.2,6.2,-0.8,1.8,2471.561,13.29,0.05,136.6
2024-05-08T03:46:03,42.805,6.029,0.037,-0.025,0.011,106.0,108.0,101.0,13.4,1505.2,0.5,-0.8,1.8,2471.551,13.29,0.044,124.0
2024-05-08T03:49:03,42.805,6.029,0.052,-0.021,0.012,106.0,109.0,103.0,13.4,1505.2,354.7,-0.8,1.8,2471.555,13.29,0.056,112.0
2024-05-08T03:52:03,42.805,6.029,0.029,-0.035,0.001,106.0,109.0,103.0,13.4,1505.2,2.0,-0.7,1.8,2471.521,13.29,0.045,140.4
2024-05-08T03:55:03,42.805,6.029,0.058,-0.035,0.009,106.0,110.0,102.0,13.4,1505.2,6.3,-0.8,1.8,2471.539,13.29,0.067,121.1
2024-05-08T03:58:03,42.805,6.029,0.017,-0.041,0.005,105.0,107.0,103.0,13.4,1505.2,10.8,-0.8,1.8,2471.538,13.29,0.044,157.5
2024-05-08T04:04:03,42.805,6.029,0.044,-0.028,0.045,105.0,107.0,103.0,13.4,1505.2,5.8,-0.8,1.8,2471.556,13.28,0.052,122.5
2024-05-08T04:07:03,42.805,6.029,0.042,-0.026,0.051,105.0,106.0,103.0,13.4,1505.2,0.5,-0.8,1.8,2471.598,13.29,0.049,121.8
2024-05-08T04:10:03,42.805,6.029,0.072,-0.04,0.023,105.0,107.0,102.0,13.3,1505.2,359.4,-0.7,1.8,2471.575,13.29,0.082,119.1
2024-05-08T04:13:03,42.805,6.029,0.027,-0.032,0.028,106.0,106.0,103.0,13.4,1505.2,1.9,-0.7,1.8,2471.606,13.29,0.041,139.8
2024-05-08T04:16:03,42.805,6.029,0.062,-0.025,0.032,107.0,107.0,102.0,13.4,1505.2,356.2,-0.8,1.8,2471.588,13.29,0.066,112.0
2024-05-08T04:19:03,42.805,6.029,0.061,-0.057,0.022,105.0,107.0,103.0,13.4,1505.2,0.0,-0.8,1.8,2471.569,13.29,0.083,133.1
2024-05-08T04:22:03,42.805,6.029,0.043,-0.036,0.009,107.0,107.0,102.0,13.4,1505.2,3.4,-0.8,1.8,2471.581,13.29,0.056,129.9
2024-05-08T04:25:03,42.805,6.029,0.036,-0.062,0.03,106.0,107.0,104.0,13.4,1505.2,2.7,-0.8,1.8,2471.566,13.29,0.071,149.9
2024-05-08T04:28:03,42.805,6.029,0.032,-0.049,0.007,107.0,110.0,102.0,13.4,1505.2,9.6,-0.8,1.8,2471.574,13.29,0.058,146.8
2024-05-08T04:31:03,42.805,6.029,0.051,-0.036,-0.019,105.0,107.0,103.0,13.4,1505.2,4.8,-0.7,1.9,2471.578,13.29,0.062,125.2
2024-05-08T04:34:03,42.805,6.029,0.057,-0.035,0.014,106.0,107.0,102.0,13.4,1505.2,6.4,-0.8,1.8,2471.617,13.29,0.066,121.6
2024-05-08T04:37:03,42.805,6.029,0.039,-0.063,0.008,106.0,105.0,102.0,13.3,1505.2,357.9,-0.8,1.8,2471.595,13.29,0.074,148.2
2024-05-08T04:40:03,42.805,6.029,0.028,-0.041,0.037,105.0,107.0,102.0,13.4,1505.2,0.5,-0.8,1.8,2471.571,13.29,0.049,145.7
2024-05-08T04:43:03,42.805,6.029,0.039,-0.068,0.028,106.0,105.0,102.0,13.4,1505.2,7.9,-0.7,1.8,2471.607,13.29,0.078,150.2
2024-05-08T04:46:03,42.805,6.029,0.032,-0.022,0.007,106.0,106.0,103.0,13.4,1505.2,359.5,-0.8,1.8,2471.566,13.29,0.038,124.5
2024-05-08T04:49:03,42.805,6.029,0.031,-0.059,0.034,105.0,106.0,104.0,13.3,1505.2,5.7,-0.7,1.8,2471.58,13.29,0.066,152.3
2024-05-08T04:52:03,42.805,6.029,0.046,-0.039,-0.018,106.0,107.0,103.0,13.4,1505.2,0.0,-0.8,1.8,2471.626,13.29,0.06,130.3
2024-05-08T04:55:03,42.805,6.029,0.033,-0.035,0.009,106.0,106.0,103.0,13.4,1505.2,1.6,-0.8,1.8,2471.609,13.29,0.048,136.7
2024-05-08T04:58:03,42.805,6.029,0.032,-0.036,0.017,105.0,106.0,103.0,13.3,1505.2,354.9,-0.8,1.8,2471.598,13.29,0.048,138.4
2024-05-08T05:04:03,42.805,6.029,0.044,-0.038,0.007,106.0,107.0,102.0,13.3,1505.2,7.5,-0.8,1.8,2471.643,13.28,0.058,130.8
2024-05-08T05:07:03,42.805,6.029,0.039,-0.036,0.034,106.0,107.0,102.0,13.4,1505.2,6.9,-0.8,1.8,2471.651,13.28,0.053,132.7
2024-05-08T05:10:03,42.805,6.029,0.035,-0.033,0.005,106.0,107.0,103.0,13.4,1505.2,354.1,-0.7,1.8,2471.668,13.29,0.048,133.3
2024-05-08T05:13:03,42.805,6.029,0.057,-0.053,0.009,106.0,106.0,103.0,13.3,1505.2,0.0,-0.8,1.8,2471.669,13.29,0.077,132.9
2024-05-08T05:16:03,42.805,6.029,0.038,-0.055,0.009,106.0,105.0,102.0,13.4,1505.2,6.4,-0.7,1.8,2471.627,13.29,0.066,145.4
2024-05-08T05:19:03,42.805,6.029,0.043,-0.04,0.001,106.0,105.0,102.0,13.3,1505.2,0.5,-0.8,1.8,2471.641,13.29,0.058,132.9
2024-05-08T05:22:03,42.805,6.029,0.039,-0.047,0.031,106.0,106.0,101.0,13.4,1505.2,1.0,-0.7,1.8,2471.682,13.29,0.061,140.3
2024-05-08T05:25:03,42.805,6.029,0.03,-0.041,0.047,107.0,106.0,103.0,13.3,1505.2,7.5,-0.8,1.8,2471.624,13.29,0.05,143.8
2024-05-08T05:28:03,42.805,6.029,0.035,-0.044,0.02,106.0,105.0,102.0,13.3,1505.2,358.4,-0.7,1.8,2471.617,13.29,0.056,141.5
2024-05-08T05:31:03,42.805,6.029,0.035,-0.045,0.023,108.0,105.0,103.0,13.4,1505.2,3.0,-0.8,1.8,2471.652,13.29,0.057,142.1
2024-05-08T05:34:03,42.805,6.029,0.034,-0.014,0.017,106.0,107.0,103.0,13.4,1505.2,0.5,-0.8,1.8,2471.664,13.29,0.036,112.4
2024-05-08T05:37:03,42.805,6.029,0.0,-0.034,-0.005,106.0,105.0,103.0,13.3,1505.2,10.3,-0.8,1.8,2471.662,13.29,0.034,180.0
2024-05-08T05:40:03,42.805,6.029,0.042,-0.035,0.016,106.0,107.0,102.0,13.4,1505.2,359.0,-0.8,1.8,2471.66,13.29,0.054,129.8
2024-05-08T05:43:03,42.805,6.029,0.031,-0.038,-0.001,105.0,106.0,104.0,13.3,1505.2,5.3,-0.8,1.8,2471.666,13.29,0.049,140.8
2024-05-08T05:46:03,42.805,6.029,0.025,-0.052,0.027,105.0,105.0,103.0,13.3,1505.2,0.0,-0.7,1.8,2471.632,13.29,0.057,154.3
2024-05-08T05:49:03,42.805,6.029,0.021,-0.056,0.019,106.0,106.0,102.0,13.4,1505.2,5.5,-0.8,1.8,2471.665,13.29,0.059,159.4
2024-05-08T05:52:03,42.805,6.029,0.045,-0.056,0.045,105.0,105.0,103.0,13.4,1505.2,355.2,-0.8,1.8,2471.7,13.29,0.071,141.2
2024-05-08T05:55:03,42.805,6.029,0.029,-0.051,0.024,105.0,106.0,103.0,13.4,1505.2,6.5,-0.7,1.8,2471.667,13.29,0.058,150.4
2024-05-08T05:58:03,42.805,6.029,0.005,-0.026,-0.002,106.0,105.0,103.0,13.3,1505.2,6.3,-0.8,1.8,2471.662,13.29,0.026,169.1
2024-05-08T07:04:03,42.805,6.029,0.019,-0.052,-0.002,105.0,105.0,103.0,13.4,1505.2,4.8,-0.8,1.8,2472.17,13.28,0.055,159.9
2024-05-08T07:07:03,42.805,6.029,0.037,-0.06,0.004,106.0,103.0,103.0,13.3,1505.2,354.1,-0.8,1.8,2472.085,13.28,0.07,148.3
2024-05-08T07:10:03,42.805,6.029,0.029,-0.049,0.034,104.0,104.0,103.0,13.4,1505.2,4.9,-0.8,1.8,2472.12,13.28,0.056,149.4
2024-05-08T07:13:03,42.805,6.029,0.031,-0.056,-0.01,105.0,103.0,102.0,13.4,1505.2,8.2,-0.8,1.8,2472.039,13.28,0.064,151.0
2024-05-08T07:16:03,42.805,6.029,0.022,-0.056,0.009,105.0,104.0,103.0,13.4,1505.2,4.8,-0.7,1.8,2471.974,13.29,0.06,158.6
2024-05-08T07:19:03,42.805,6.029,0.01,-0.053,-0.003,104.0,105.0,103.0,13.4,1505.2,8.7,-0.7,1.8,2471.886,13.29,0.053,169.3
2024-05-08T07:22:03,42.805,6.029,0.043,-0.068,0.023,105.0,105.0,102.0,13.4,1505.2,9.6,-0.8,1.8,2471.825,13.29,0.08,147.7
2024-05-08T07:25:03,42.805,6.029,0.016,-0.056,-0.001,106.0,104.0,103.0,13.3,1505.2,0.9,-0.7,1.8,2471.862,13.29,0.058,164.1
2024-05-08T07:28:03,42.805,6.029,0.008,-0.031,-0.006,105.0,106.0,102.0,13.4,1505.2,2.0,-0.8,1.8,2471.79,13.29,0.032,165.5
2024-05-08T07:31:03,42.805,6.029,0.022,-0.056,0.012,105.0,106.0,103.0,13.3,1505.2,3.0,-0.7,1.8,2471.759,13.29,0.06,158.6
2024-05-08T07:34:03,42.805,6.029,0.027,-0.05,0.002,105.0,105.0,101.0,13.4,1505.2,355.2,-0.8,1.8,2471.765,13.29,0.056,151.6
2024-05-08T07:37:03,42.805,6.029,0.009,-0.044,0.012,107.0,104.0,103.0,13.4,1505.2,5.8,-0.8,1.8,2471.749,13.29,0.044,168.4
2024-05-08T07:40:03,42.805,6.029,0.004,-0.063,0.011,105.0,105.0,103.0,13.4,1505.2,8.0,-0.7,1.8,2471.734,13.29,0.063,176.4
2024-05-08T07:43:03,42.805,6.029,0.042,-0.046,-0.011,105.0,105.0,102.0,13.3,1505.2,354.2,-0.8,1.9,2471.698,13.29,0.062,137.6
2024-05-08T07:46:03,42.805,6.029,0.039,-0.057,0.019,107.0,105.0,102.0,13.4,1505.2,358.9,-0.7,1.9,2471.7,13.29,0.069,145.6
2024-05-08T07:49:03,42.805,6.029,0.021,-0.055,0.009,105.0,105.0,102.0,13.4,1505.2,359.4,-0.7,1.8,2471.665,13.29,0.058,159.1
2024-05-08T07:52:03,42.805,6.029,0.02,-0.04,0.029,106.0,104.0,103.0,13.4,1505.2,7.4,-0.7,1.8,2471.676,13.29,0.044,153.4
2024-05-08T07:55:03,42.805,6.029,0.025,-0.038,0.034,106.0,106.0,103.0,13.4,1505.2,4.8,-0.8,1.8,2471.679,13.29,0.045,146.7
2024-05-08T07:58:03,42.805,6.029,0.014,-0.066,0.026,106.0,104.0,102.0,13.4,1505.2,0.9,-0.8,1.8,2471.662,13.29,0.067,168.0
2024-05-08T08:04:03,42.805,6.029,0.007,-0.033,-0.01,105.0,105.0,102.0,13.4,1505.2,9.3,-0.7,1.8,2471.679,13.28,0.033,168.0
2024-05-08T08:07:03,42.805,6.029,0.024,-0.049,-0.001,105.0,104.0,102.0,13.3,1505.2,3.9,-0.8,1.8,2471.702,13.29,0.054,153.9
2024-05-08T08:10:03,42.805,6.029,-0.001,-0.057,-0.025,106.0,104.0,102.0,13.4,1505.2,357.3,-0.8,1.8,2471.664,13.29,0.057,181.0
2024-05-08T08:13:03,42.805,6.029,0.028,-0.053,0.03,105.0,106.0,102.0,13.4,1505.2,0.0,-0.8,1.8,2471.666,13.29,0.059,152.1
2024-05-08T08:16:03,42.805,6.029,0.014,-0.044,0.039,104.0,105.0,103.0,13.3,1505.2,9.5,-0.8,1.8,2471.656,13.29,0.046,162.4
2024-05-08T08:19:03,42.805,6.029,0.013,-0.023,-0.023,105.0,104.0,103.0,13.3,1505.2,356.5,-0.8,1.8,2471.647,13.29,0.026,150.5
2024-05-08T08:22:03,42.805,6.029,0.009,-0.037,0.01,105.0,104.0,102.0,13.4,1505.2,2.9,-0.7,1.8,2471.662,13.29,0.038,166.3
2024-05-08T08:25:03,42.805,6.029,0.008,-0.057,-0.023,106.0,104.0,102.0,13.3,1505.2,7.3,-0.8,1.8,2471.625,13.29,0.057,172.0
2024-05-08T08:28:03,42.805,6.029,0.01,-0.045,0.005,106.0,104.0,102.0,13.4,1505.2,4.3,-0.8,1.8,2471.666,13.29,0.046,167.5
2024-05-08T08:31:03,42.805,6.029,0.012,-0.048,0.0,104.0,104.0,102.0,13.4,1505.2,10.7,-0.8,1.8,2471.616,13.29,0.049,166.0
2024-05-08T08:34:03,42.805,6.029,0.006,-0.041,-0.014,105.0,105.0,102.0,13.4,1505.2,2.9,-0.7,1.8,2471.629,13.29,0.041,171.7
2024-05-08T08:37:03,42.805,6.029,0.026,-0.031,0.019,106.0,105.0,103.0,13.4,1505.2,3.0,-0.8,1.8,2471.624,13.29,0.04,140.0
2024-05-08T08:40:03,42.805,6.029,0.004,-0.05,0.012,105.0,104.0,103.0,13.4,1505.2,3.2,-0.8,1.8,2471.65,13.29,0.05,175.4
2024-05-08T08:43:03,42.805,6.029,-0.003,-0.026,-0.02,104.0,104.0,103.0,13.4,1505.2,10.3,-0.8,1.8,2471.625,13.29,0.026,186.6
2024-05-08T08:46:03,42.805,6.029,0.017,-0.038,0.017,104.0,106.0,102.0,13.3,1505.2,0.4,-0.8,1.8,2471.643,13.29,0.041,155.9
2024-05-08T08:49:03,42.805,6.029,-0.008,-0.023,0.001,106.0,105.0,103.0,13.4,1505.2,2.2,-0.8,1.8,2471.606,13.29,0.024,199.2
2024-05-08T08:52:03,42.805,6.029,0.028,-0.028,0.016,106.0,105.0,103.0,13.4,1505.2,359.4,-0.8,1.8,2471.639,13.29,0.039,135.0
2024-05-08T08:55:03,42.805,6.029,0.011,-0.044,0.007,104.0,104.0,102.0,13.4,1505.2,0.9,-0.7,1.8,2471.595,13.29,0.045,166.0
2024-05-08T08:58:03,42.805,6.029,0.027,-0.047,0.015,106.0,103.0,102.0,13.4,1505.2,357.8,-0.7,1.8,2471.62,13.29,0.054,150.1
2024-05-08T09:04:03,42.805,6.029,0.0,-0.03,-0.002,105.0,104.0,102.0,13.4,1505.2,1.4,-0.8,1.8,2471.63,13.28,0.03,180.0
2024-05-08T09:07:03,42.805,6.029,0.0,-0.062,-0.003,106.0,104.0,102.0,13.4,1505.2,5.2,-0.8,1.8,2471.653,13.29,0.061,180.0
2024-05-08T09:10:03,42.805,6.029,0.002,-0.05,0.002,106.0,105.0,101.0,13.3,1505.2,7.9,-0.8,1.8,2471.628,13.29,0.05,177.7
2024-05-08T09:13:03,42.805,6.029,0.011,-0.04,0.002,104.0,104.0,102.0,13.4,1505.2,355.4,-0.8,1.8,2471.632,13.29,0.041,164.6
2024-05-08T09:16:03,42.805,6.029,0.001,-0.021,0.009,104.0,107.0,103.0,13.4,1505.2,4.5,-0.8,1.8,2471.643,13.29,0.021,177.3
2024-05-08T09:19:03,42.805,6.029,0.0,-0.048,-0.014,105.0,106.0,102.0,13.4,1505.2,4.3,-0.7,1.8,2471.596,13.29,0.048,180.0
2024-05-08T09:22:03,42.805,6.029,0.019,-0.019,-0.003,105.0,106.0,103.0,13.4,1505.2,8.1,-0.8,1.8,2471.635,13.29,0.026,135.0
2024-05-08T09:25:03,42.805,6.029,-0.001,-0.04,-0.039,105.0,105.0,102.0,13.4,1505.2,354.2,-0.7,1.8,2471.611,13.29,0.04,181.4
2024-05-08T09:28:03,42.805,6.029,0.005,-0.031,-0.005,106.0,104.0,102.0,13.4,1505.2,0.0,-0.7,1.8,2471.574,13.29,0.031,170.8
2024-05-08T09:31:03,42.805,6.029,0.0,-0.021,0.013,106.0,104.0,102.0,13.3,1505.2,3.0,-0.8,1.8,2471.642,13.29,0.021,180.0
2024-05-08T09:34:03,42.805,6.029,0.008,-0.032,0.004,104.0,104.0,103.0,13.4,1505.2,4.0,-0.8,1.8,2471.617,13.29,0.032,166.0
2024-05-08T09:37:03,42.805,6.029,0.009,-0.032,0.01,107.0,104.0,101.0,13.4,1505.2,6.9,-0.8,1.8,2471.61,13.29,0.033,164.3
2024-05-08T09:40:03,42.805,6.029,0.013,0.0,0.013,104.0,105.0,102.0,13.4,1505.2,357.8,-0.8,1.8,2471.575,13.29,0.013,90.0
2024-05-08T09:43:03,42.805,6.029,-0.034,-0.015,-0.043,105.0,105.0,102.0,13.4,1505.2,5.2,-0.7,1.8,2471.585,13.29,0.037,246.2
2024-05-08T09:46:03,42.805,6.029,0.017,-0.034,0.017,105.0,105.0,102.0,13.3,1505.2,7.4,-0.7,1.8,2471.574,13.29,0.038,153.4
2024-05-08T09:49:03,42.805,6.029,0.017,-0.034,0.005,105.0,105.0,102.0,13.4,1505.2,358.0,-0.8,1.8,2471.577,13.29,0.038,153.4
2024-05-08T09:52:03,42.805,6.029,0.012,-0.022,0.021,104.0,104.0,102.0,13.4,1505.2,5.3,-0.8,1.8,2471.566,13.29,0.025,151.4
2024-05-08T09:55:03,42.805,6.029,0.006,0.0,0.009,105.0,104.0,102.0,13.3,1505.2,3.3,-0.8,1.8,2471.581,13.29,0.006,90.0
2024-05-08T09:58:03,42.805,6.029,0.005,-0.029,-0.013,105.0,104.0,103.0,13.4,1505.2,3.5,-0.7,1.8,2471.562,13.29,0.029,170.2
2024-05-08T10:04:03,42.805,6.029,0.002,-0.012,-0.013,105.0,104.0,102.0,13.4,1505.2,8.1,-0.8,1.8,2471.589,13.29,0.012,170.5
2024-05-08T10:07:03,42.805,6.029,0.011,-0.037,-0.007,105.0,105.0,101.0,13.4,1505.2,355.6,-0.7,1.8,2471.591,13.29,0.038,163.4
2024-05-08T10:10:03,42.805,6.029,0.015,-0.024,-0.006,105.0,105.0,103.0,13.4,1505.2,0.0,-0.7,1.8,2471.548,13.29,0.028,148.0
2024-05-08T10:13:03,42.805,6.029,0.021,-0.011,0.041,105.0,105.0,102.0,13.3,1505.2,0.0,-0.8,1.8,2471.556,13.29,0.023,117.6
2024-05-08T10:16:03,42.805,6.029,0.012,-0.033,-0.021,105.0,104.0,103.0,13.3,1505.2,10.0,-0.8,1.8,2471.575,13.29,0.035,160.0
2024-05-08T10:19:03,42.805,6.029,0.008,-0.029,0.017,105.0,105.0,103.0,13.4,1505.2,3.9,-0.8,1.8,2471.578,13.29,0.03,164.6
2024-05-08T10:22:03,42.805,6.029,0.006,-0.018,0.01,105.0,104.0,101.0,13.3,1505.2,0.4,-0.8,1.8,2471.535,13.29,0.018,161.6
2024-05-08T10:25:03,42.805,6.029,-0.001,-0.022,0.015,105.0,105.0,103.0,13.4,1505.2,0.5,-0.8,1.9,2471.549,13.29,0.022,182.6
2024-05-08T10:28:03,42.805,6.029,0.008,-0.028,0.023,104.0,105.0,102.0,13.4,1505.2,9.9,-0.8,1.8,2471.54,13.29,0.029,164.1
2024-05-08T10:31:03,42.805,6.029,0.002,-0.016,0.005,105.0,104.0,102.0,13.4,1505.2,359.5,-0.7,1.8,2471.526,13.29,0.016,172.9
2024-05-08T10:34:03,42.805,6.029,0.008,-0.028,0.0,104.0,106.0,101.0,13.4,1505.2,5.0,-0.8,1.8,2471.524,13.29,0.029,164.1
2024-05-08T10:37:03,42.805,6.029,-0.008,-0.017,0.014,106.0,104.0,101.0,13.4,1505.2,6.2,-0.8,1.8,2471.545,13.29,0.018,205.2
2024-05-08T10:40:03,42.805,6.029,0.009,-0.031,0.0,106.0,105.0,103.0,13.4,1505.2,4.8,-0.8,1.8,2471.506,13.29,0.032,163.8
2024-05-08T10:43:03,42.805,6.029,0.013,-0.021,0.008,105.0,105.0,102.0,13.4,1505.2,4.4,-0.8,1.8,2471.517,13.29,0.024,148.2
2024-05-08T10:46:03,42.805,6.029,0.002,-0.034,0.032,105.0,105.0,102.0,13.3,1505.2,6.3,-0.8,1.8,2471.533,13.29,0.034,176.6
2024-05-08T10:49:03,42.805,6.029,0.017,-0.004,0.025,104.0,105.0,102.0,13.3,1505.2,3.1,-0.8,1.8,2471.511,13.29,0.017,103.2
2024-05-08T10:52:03,42.805,6.029,0.009,-0.02,0.005,106.0,105.0,102.0,13.4,1505.2,355.9,-0.8,1.8,2471.518,13.29,0.021,155.8
2024-05-08T10:55:03,42.805,6.029,0.025,-0.022,0.018,104.0,105.0,103.0,13.4,1505.2,3.8,-0.8,1.8,2471.51,13.29,0.033,131.3
2024-05-08T10:58:03,42.805,6.029,0.017,-0.011,0.0,105.0,105.0,103.0,13.4,1505.2,7.4,-0.7,1.8,2471.505,13.29,0.02,122.9
2024-05-08T11:04:03,42.805,6.029,0.012,-0.028,0.021,105.0,107.0,102.0,13.4,1505.2,10.5,-0.7,1.8,2471.515,13.28,0.03,156.8
2024-05-08T11:07:03,42.805,6.029,0.017,-0.013,-0.01,106.0,104.0,102.0,13.4,1505.2,355.6,-0.8,1.8,2471.513,13.29,0.021,127.4